シューメーカー第3彗星

155P/Shoemaker 3 (2019)

English version
Home page
Updated on July 8, 2020

---------------------------------------------------------------------

・ プロフィール

・ 写真集

・ 軌道要素

Epoch 2019 Nov. 13.0 TT = JDT 2458800.5
T 2019 Nov. 15.02010 TT                                 MPCW
q   1.8018458            (2000.0)            P               Q
n   0.05825934     Peri.   14.66704     -0.37085597     -0.92209063
a   6.5901054      Node    97.19787     +0.84044392     -0.38386370
e   0.7265832      Incl.    6.39592     +0.39512006     -0.04896460
P  16.9
From 1021 observations 1986 Jan. 10-2019 Nov. 1, mean residual 0".7.
     Nongravitational parameters A1 = +0.01, A2 = -0.0808.

・ 星図

・ 光度変化

        m1 = 7.5 + 5 logΔ + 25.0 log r

---------------------------------------------------------------------

軌道要素はM.P.E.C. 2019-V116に掲載されたものです。
星図はステラナビゲータ Ver.10 (アストロアーツ) で作成したものです。
光度グラフはComet for Windowsで作成したものです。

---------------------------------------------------------------------

Copyright(C) Seiichi Yoshida (comet@aerith.net). All rights reserved.